| time (UTC) | temp F | wind direction | speed knots | gust knots | rain 1hr in | rain 24hr in | rain mn in | humidity % | barometer mb |
| 20260906173056 | 71 | 67 | 6.1 | 9.6 | 0.00 | 0.00 | 0.00 | 85 | 1018.7 |
| 20260906171607 | 71 | 55 | 5.2 | 8.7 | 0.00 | 0.00 | 0.00 | 86 | 1019.0 |
| 20260906170103 | 71 | 62 | 5.2 | 8.7 | 0.00 | 0.00 | 0.00 | 87 | 1019.1 |
| 20260906164548 | 69 | 26 | 2.6 | 6.1 | 0.00 | 0.00 | 0.00 | 91 | 1019.0 |
| 20260906163059 | 68 | 233 | 1.7 | 4.3 | 0.00 | 0.00 | 0.00 | 92 | 1019.0 |
| 20260906161554 | 69 | 233 | 2.6 | 4.3 | 0.00 | 0.00 | 0.00 | 89 | 1019.1 |
| 20260906160051 | 70 | 304 | 1.7 | 4.3 | 0.00 | 0.00 | 0.00 | 90 | 1019.1 |
| 20260906154546 | 69 | 313 | 1.7 | 3.5 | 0.00 | 0.00 | 0.00 | 91 | 1019.1 |
| 20260906153055 | 68 | 277 | 1.7 | 3.5 | 0.00 | 0.00 | 0.00 | 91 | 1018.9 |
| 20260906151555 | 68 | 219 | 0.9 | 1.7 | 0.00 | 0.00 | 0.00 | 91 | 1019.0 |
| 20260906150050 | 68 | 0 | 0.9 | 3.5 | 0.00 | 0.00 | 0.00 | 92 | 1019.0 |
| 20260906144603 | 67 | 313 | 1.7 | 4.3 | 0.00 | 0.00 | 0.00 | 93 | 1019.1 |
| 20260906143107 | 67 | 0 | 0.0 | 0.0 | 0.00 | 0.00 | 0.00 | 94 | 1019.1 |
| 20260906141554 | 67 | 0 | 0.0 | 0.0 | 0.00 | 0.00 | 0.00 | 94 | 1019.4 |
| 20260906140046 | 67 | 0 | 0.0 | 0.0 | 0.00 | 0.00 | 0.00 | 94 | 1019.5 |
| 20260906134554 | 66 | 0 | 0.0 | 0.0 | 0.00 | 0.00 | 0.00 | 94 | 1019.5 |
| 20260906133103 | 66 | 0 | 0.0 | 0.0 | 0.00 | 0.00 | 0.00 | 94 | 1019.5 |
| 20260906131542 | 66 | 0 | 0.0 | 0.0 | 0.00 | 0.00 | 0.00 | 97 | 1019.3 |
| 20260906130104 | 64 | 0 | 0.0 | 0.0 | 0.00 | 0.00 | 0.00 | 97 | 1019.2 |
| 20260906124552 | 64 | 0 | 0.0 | 0.0 | 0.00 | 0.00 | 0.00 | 97 | 1019.2 |
| 20260906123046 | 63 | 0 | 0.0 | 0.0 | 0.00 | 0.00 | 0.00 | 97 | 1019.2 |
| 20260906121556 | 63 | 0 | 0.0 | 0.0 | 0.00 | 0.00 | 0.00 | 97 | 1019.1 |
| 20260906120057 | 62 | 0 | 0.0 | 0.0 | 0.00 | 0.00 | 0.00 | 98 | 1018.9 |
| 20260906114557 | 62 | 0 | 0.0 | 0.9 | 0.00 | 0.00 | 0.00 | 97 | 1018.4 |
| 20260906113049 | 62 | 0 | 0.0 | 1.7 | 0.00 | 0.00 | 0.00 | 97 | 1018.3 |
| 20260906111600 | 62 | 0 | 0.0 | 1.7 | 0.00 | 0.00 | 0.00 | 96 | 1018.2 |
| 20260906110057 | 63 | 0 | 0.0 | 0.0 | 0.00 | 0.00 | 0.00 | 96 | 1018.1 |
| 20260906104558 | 63 | 0 | 0.9 | 2.6 | 0.00 | 0.00 | 0.00 | 97 | 1018.0 |
| 20260906103045 | 63 | 267 | 1.7 | 3.5 | 0.00 | 0.00 | 0.00 | 97 | 1018.0 |
| 20260906101557 | 63 | 249 | 2.6 | 3.5 | 0.00 | 0.00 | 0.00 | 97 | 1018.0 |
| 20260906100055 | 63 | 274 | 4.3 | 6.1 | 0.00 | 0.00 | 0.00 | 96 | 1017.7 |
| 20260906094605 | 63 | 250 | 4.3 | 7.0 | 0.00 | 0.00 | 0.00 | 96 | 1017.8 |
| 20260906093131 | 63 | 292 | 0.9 | 3.5 | 0.00 | 0.00 | 0.00 | 96 | 1017.7 |
| 20260906091606 | 63 | 290 | 3.5 | 7.0 | 0.00 | 0.00 | 0.00 | 96 | 1018.1 |
| 20260906090052 | 63 | 292 | 3.5 | 6.1 | 0.00 | 0.00 | 0.00 | 96 | 1018.0 |
| 20260906084545 | 64 | 0 | 0.0 | 2.6 | 0.00 | 0.01 | 0.00 | 96 | 1018.1 |
| 20260906083050 | 63 | 0 | 0.0 | 2.6 | 0.00 | 0.01 | 0.00 | 96 | 1018.1 |
| 20260906081545 | 63 | 309 | 0.0 | 1.7 | 0.00 | 0.01 | 0.00 | 95 | 1018.1 |
| 20260906080056 | 63 | 0 | 0.0 | 1.7 | 0.00 | 0.01 | 0.00 | 95 | 1018.2 |
| 20260906074553 | 64 | 309 | 1.7 | 4.3 | 0.00 | 0.02 | 0.00 | 95 | 1018.0 |
| 20260906073048 | 64 | 297 | 3.5 | 4.3 | 0.00 | 0.02 | 0.00 | 94 | 1018.2 |
| 20260906071557 | 65 | 9 | 1.7 | 3.5 | 0.00 | 0.02 | 0.00 | 93 | 1018.2 |
| 20260906070056 | 65 | 360 | 1.7 | 4.3 | 0.00 | 0.02 | 0.00 | 93 | 1018.1 |
| 20260906064550 | 65 | 20 | 0.9 | 3.5 | 0.00 | 0.03 | 0.00 | 92 | 1018.2 |
| 20260906063058 | 65 | 5 | 1.7 | 3.5 | 0.00 | 0.03 | 0.00 | 92 | 1018.2 |
| 20260906061558 | 65 | 0 | 0.0 | 5.2 | 0.00 | 0.03 | 0.00 | 92 | 1018.2 |
| 20260906060054 | 65 | 31 | 5.2 | 8.7 | 0.00 | 0.03 | 0.00 | 92 | 1018.0 |
| 20260906054610 | 65 | 32 | 3.5 | 7.8 | 0.00 | 0.03 | 0.00 | 92 | 1017.9 |
| 20260906053045 | 66 | 34 | 2.6 | 5.2 | 0.00 | 0.03 | 0.00 | 90 | 1017.9 |
| 20260906051605 | 66 | 18 | 0.9 | 4.3 | 0.00 | 0.03 | 0.00 | 91 | 1018.0 |
| 20260906050104 | 66 | 31 | 1.7 | 3.5 | 0.00 | 0.03 | 0.00 | 91 | 1017.9 |
| 20260906044553 | 66 | 0 | 0.0 | 2.6 | 0.00 | 0.03 | 0.03 | 91 | 1017.9 |
| 20260906043058 | 66 | 30 | 0.9 | 3.5 | 0.00 | 0.03 | 0.03 | 91 | 1018.0 |
| 20260906041555 | 66 | 13 | 1.7 | 5.2 | 0.00 | 0.03 | 0.03 | 91 | 1017.9 |
| 20260906040101 | 66 | 31 | 2.6 | 6.1 | 0.00 | 0.03 | 0.03 | 91 | 1017.7 |
| 20260906034545 | 66 | 44 | 2.6 | 5.2 | 0.00 | 0.03 | 0.03 | 91 | 1017.4 |
| 20260906033056 | 66 | 57 | 4.3 | 9.6 | 0.00 | 0.03 | 0.03 | 91 | 1017.5 |
| 20260906031552 | 66 | 16 | 4.3 | 8.7 | 0.00 | 0.03 | 0.03 | 90 | 1018.0 |
| 20260906030051 | 66 | 26 | 1.7 | 5.2 | 0.00 | 0.03 | 0.03 | 90 | 1017.6 |
| 20260906024551 | 66 | 51 | 1.7 | 3.5 | 0.00 | 0.03 | 0.03 | 91 | 1017.7 |
| 20260906023055 | 66 | 20 | 0.9 | 2.6 | 0.00 | 0.03 | 0.03 | 91 | 1017.7 |
| 20260906021554 | 66 | 13 | 0.9 | 3.5 | 0.00 | 0.03 | 0.03 | 90 | 1017.6 |
| 20260906020051 | 66 | 55 | 0.9 | 4.3 | 0.00 | 0.03 | 0.03 | 89 | 1017.6 |
| 20260906014638 | 66 | 55 | 1.7 | 3.5 | 0.00 | 0.03 | 0.03 | 89 | 1017.6 |
| 20260906013101 | 66 | 55 | 0.0 | 2.6 | 0.00 | 0.03 | 0.03 | 90 | 1017.5 |
| 20260906011603 | 66 | 77 | 1.7 | 3.5 | 0.00 | 0.03 | 0.03 | 88 | 1017.2 |
| 20260906010050 | 67 | 77 | 0.9 | 1.7 | 0.00 | 0.03 | 0.03 | 86 | 1017.4 |
| 20260906004606 | 67 | 77 | 0.0 | 1.7 | 0.00 | 0.03 | 0.03 | 86 | 1017.4 |
| 20260906003112 | 68 | 77 | 0.0 | 2.6 | 0.00 | 0.03 | 0.03 | 86 | 1017.4 |
| 20260906001556 | 69 | 77 | 1.7 | 3.5 | 0.00 | 0.03 | 0.03 | 85 | 1017.3 |
| 20260906000056 | 69 | 99 | 4.3 | 8.7 | 0.00 | 0.03 | 0.03 | 82 | 1017.5 |
| 20260905234551 | 70 | 92 | 2.6 | 8.7 | 0.00 | 0.03 | 0.03 | 82 | 1017.4 |
| 20260905233047 | 70 | 90 | 4.3 | 7.8 | 0.00 | 0.03 | 0.03 | 80 | 1017.3 |
| 20260905231558 | 71 | 52 | 2.6 | 6.1 | 0.00 | 0.03 | 0.03 | 82 | 1017.3 |
| 20260905230057 | 71 | 22 | 3.5 | 7.8 | 0.00 | 0.03 | 0.03 | 81 | 1017.4 |
| 20260905224613 | 71 | 57 | 3.5 | 8.7 | 0.00 | 0.03 | 0.03 | 83 | 1017.4 |
| 20260905223058 | 71 | 51 | 4.3 | 9.6 | 0.00 | 0.03 | 0.03 | 82 | 1017.3 |
| 20260905221611 | 71 | 33 | 4.3 | 9.6 | 0.00 | 0.03 | 0.03 | 82 | 1017.2 |
| 20260905220054 | 71 | 46 | 6.1 | 10.4 | 0.00 | 0.03 | 0.03 | 80 | 1017.4 |
| 20260905214554 | 71 | 80 | 4.3 | 10.4 | 0.00 | 0.03 | 0.03 | 82 | 1017.6 |
| 20260905213104 | 71 | 19 | 5.2 | 9.6 | 0.00 | 0.03 | 0.03 | 81 | 1017.4 |
| 20260905211559 | 71 | 61 | 4.3 | 11.3 | 0.00 | 0.03 | 0.03 | 81 | 1017.3 |
| 20260905210053 | 71 | 49 | 7.8 | 11.3 | 0.00 | 0.03 | 0.03 | 81 | 1017.6 |
| 20260905204555 | 72 | 44 | 6.1 | 10.4 | 0.00 | 0.03 | 0.03 | 81 | 1017.6 |
| 20260905203053 | 72 | 60 | 7.0 | 12.2 | 0.00 | 0.03 | 0.03 | 81 | 1017.5 |
| 20260905201618 | 72 | 63 | 5.2 | 11.3 | 0.00 | 0.03 | 0.03 | 80 | 1017.6 |
| 20260905200100 | 71 | 61 | 5.2 | 9.6 | 0.00 | 0.03 | 0.03 | 80 | 1017.7 |
| 20260905194551 | 71 | 49 | 7.0 | 10.4 | 0.00 | 0.03 | 0.03 | 80 | 1017.7 |
| 20260905193054 | 71 | 24 | 4.3 | 9.6 | 0.00 | 0.03 | 0.03 | 83 | 1017.6 |
| 20260905191547 | 71 | 16 | 5.2 | 9.6 | 0.00 | 0.03 | 0.03 | 82 | 1017.4 |
| 20260905190052 | 71 | 54 | 6.1 | 10.4 | 0.00 | 0.03 | 0.03 | 79 | 1017.4 |
| 20260905184555 | 71 | 21 | 4.3 | 7.8 | 0.00 | 0.03 | 0.03 | 80 | 1017.3 |
| 20260905183045 | 71 | 53 | 5.2 | 8.7 | 0.00 | 0.03 | 0.03 | 83 | 1017.8 |
| 20260905181607 | 71 | 22 | 3.5 | 7.8 | 0.00 | 0.03 | 0.03 | 84 | 1017.7 |
| 20260905180053 | 70 | 61 | 3.5 | 7.8 | 0.00 | 0.03 | 0.03 | 85 | 1017.8 |
| 20260905174551 | 70 | 104 | 2.6 | 6.1 | 0.00 | 0.03 | 0.03 | 87 | 1017.9 |